Flag for Norway Weather past 2 weeks in Asker, Norway

45 °F

Sprinkles. Partly cloudy.

Feels Like: 38 °F
Forecast: 21 / 28 °F
Wind: 15 mph from West

Location: Oslo / Fornebu

Current Time: Nov 24, 2015 at 11:44:22 PM

Latest Report: Nov 24, 2015 at 10:50 PM

Visibility: N/A

Pressure: 29.24 "Hg

Humidity: 81%

Dew point: 39 °F

Location of AskerLocation

Historic Weather in Asker — Graph


Asker temperature yesterday

Maximum temperature yesterday: 48 °F (at 9:20 AM)
Minimum temperature yesterday: 41 °F (at 12:20 AM)
Average temperature yesterday: 46 °F

Past Weeks' High & Low Weather Summary

High52 °F (Nov 12, 10:50 PM)100% (Nov 16, 7:50 AM)30.01 "Hg (Nov 16, 7:50 AM)
Low32 °F (Nov 21, 2:20 AM)45% (Nov 20, 2:20 AM)28.74 "Hg (Nov 17, 7:50 AM)
Average46 °F75%29.41 "Hg
* Reported Nov 9 10:20 PM — Nov 24 10:20 PM, Asker, Weather by CustomWeather, © 2015

Note: Actual official high and low records may vary slightly from our data, if they occured in-between our weather recording intervals... More about our weather records


Asker weather history for previous 24 hours

Time TempWeatherWind HumidityBarometerVisibility
10:20 PM
Tue, Nov 24
45 °FPartly cloudy.16 mph76%29.24 "HgN/A
9:50 PM45 °FPassing clouds.23 mph76%29.24 "HgN/A
9:20 PM45 °FSprinkles. Passing clouds.28 mph81%29.24 "HgN/A
8:50 PM45 °FSprinkles. Passing clouds.29 mph76%29.24 "HgN/A
8:20 PM46 °FSprinkles. Passing clouds.23 mph71%29.24 "HgN/A
7:50 PM45 °FSprinkles. Passing clouds.24 mph76%29.24 "HgN/A
7:20 PM46 °FPassing clouds.25 mph76%29.24 "HgN/A
6:50 PM45 °FQuite cool.25 mph76%29.24 "HgN/A
6:20 PM45 °FPassing clouds.28 mph76%29.24 "HgN/A
5:50 PM46 °FPassing clouds.29 mph76%29.24 "HgN/A
5:20 PM45 °FPassing clouds.28 mph71%29.24 "HgN/A
4:50 PM45 °FPartly cloudy.26 mph71%29.24 "HgN/A
4:20 PM45 °FPassing clouds.24 mph81%29.24 "HgN/A
3:50 PM45 °FPartly cloudy.28 mph76%29.27 "HgN/A
3:20 PM45 °FBroken clouds.28 mph76%29.27 "HgN/A
2:50 PM43 °FSprinkles. Fog.35 mph76%29.27 "Hg2 mi
2:20 PM45 °FSprinkles. Partly sunny.24 mph76%29.27 "HgN/A
1:50 PM46 °FPartly sunny.25 mph76%29.27 "HgN/A
1:20 PM46 °FPassing clouds.28 mph71%29.30 "HgN/A
12:50 PM46 °FBroken clouds.33 mph62%29.27 "HgN/A
12:20 PM46 °FScattered clouds.28 mph66%29.30 "HgN/A
11:50 AM46 °FPassing clouds.24 mph62%29.30 "HgN/A
11:20 AM46 °FPassing clouds.30 mph66%29.33 "HgN/A
10:50 AM46 °FPartly sunny.30 mph66%29.33 "HgN/A
10:20 AM46 °FPartly sunny.23 mph71%29.33 "HgN/A
9:50 AM46 °FPartly sunny.28 mph71%29.33 "HgN/A
9:20 AM45 °FBroken clouds.25 mph76%29.36 "HgN/A
8:50 AM46 °FSprinkles. Partly sunny.33 mph71%29.33 "HgN/A
8:20 AM45 °FPassing clouds.26 mph76%29.36 "HgN/A
7:50 AM45 °FPassing clouds.35 mph81%29.36 "HgN/A
6:50 AM46 °FPassing clouds.36 mph71%29.36 "HgN/A
6:20 AM46 °FPassing clouds.33 mph66%29.36 "HgN/A
5:50 AM46 °FPassing clouds.37 mph71%29.36 "HgN/A
5:20 AM46 °FPassing clouds.37 mph62%29.36 "HgN/A
4:50 AM46 °FPassing clouds.33 mph66%29.36 "HgN/A
3:50 AM46 °FPassing clouds.33 mph66%29.36 "HgN/A
3:20 AM46 °FPassing clouds.37 mph71%29.36 "HgN/A
2:50 AM46 °FPassing clouds.37 mph66%29.36 "HgN/A
2:20 AM46 °FPassing clouds.38 mph71%29.39 "HgN/A
1:50 AM46 °FPassing clouds.35 mph76%29.39 "HgN/A
1:20 AM46 °FPassing clouds.35 mph71%29.39 "HgN/A
12:50 AM45 °FSprinkles. Passing clouds.32 mph81%29.39 "HgN/A
12:20 AM46 °FPassing clouds.31 mph76%29.39 "HgN/A
11:50 PM
Mon, Nov 23
46 °FSprinkles. Passing clouds.29 mph82%29.42 "HgN/A
11:20 PM46 °FPassing clouds.30 mph76%29.39 "HgN/A
Weather by CustomWeather, © 2015

See weather overviewHow to use our weather pages